Location: Bergnerzell
(49.1816°N, 10.2565°E)
Time: 05:23:49
(UTC+00:00)

Cosmos 1825 - Pass Details

Date: 19 August 2024
Orbit: 422 x 426 km, 82.5° (Epoch: 09 September)

Event Time Altitude Azimuth Distance (km) Brightness Sun altitude
Rises 00:22:44 0° 10° (N) 2,400 6.9 -26.7°
Reaches altitude 10° 00:26:31 10° 55° (NE) 1,522 5.2 -26.6°
Maximum altitude 00:27:05 10° 65° (ENE) 1,501 5.0 -26.5°
Drops below altitude 10° 00:27:39 10° 74° (ENE) 1,519 4.9 -26.5°
Enters shadow 00:28:01 10° 81° (E) 1,553 4.9 -26.5°
